TimeCDT,TemperatureF,Dew PointF,Humidity,Sea Level PressureIn,VisibilityMPH,Wind Direction,Wind SpeedMPH,Gust SpeedMPH,PrecipitationIn,Events,Conditions,WindDirDegrees,DateUTC
12:54 AM,53.1,39.9,61,29.94,10.0,South,5.8,-,N/A,,Scattered Clouds,180,2011-10-16 05:54:00
1:54 AM,57.0,39.9,53,29.93,10.0,South,8.1,-,N/A,,Overcast,190,2011-10-16 06:54:00
2:54 AM,55.9,39.9,55,29.89,10.0,SSW,11.5,-,N/A,,Clear,200,2011-10-16 07:54:00
3:54 AM,54.0,39.9,59,29.86,10.0,South,10.4,-,N/A,,Clear,190,2011-10-16 08:54:00
4:54 AM,54.0,41.0,62,29.86,10.0,SSW,9.2,-,N/A,,Clear,210,2011-10-16 09:54:00
5:54 AM,55.0,42.1,62,29.85,10.0,SSW,12.7,-,N/A,,Clear,210,2011-10-16 10:54:00
6:54 AM,55.9,42.1,60,29.83,10.0,SSW,17.3,-,N/A,,Clear,210,2011-10-16 11:54:00
7:54 AM,57.0,43.0,59,29.85,10.0,SW,13.8,-,N/A,,Clear,220,2011-10-16 12:54:00
8:54 AM,61.0,44.1,54,29.85,10.0,SW,11.5,-,N/A,,Clear,220,2011-10-16 13:54:00
9:54 AM,66.9,46.0,47,29.84,10.0,WSW,17.3,23.0,N/A,,Clear,240,2011-10-16 14:54:00
10:54 AM,68.0,46.9,47,29.83,10.0,WSW,15.0,-,N/A,,Clear,250,2011-10-16 15:54:00
11:54 AM,72.0,48.9,44,29.82,10.0,West,13.8,21.9,N/A,,Clear,280,2011-10-16 16:54:00
12:54 PM,72.0,48.9,44,29.81,10.0,West,11.5,20.7,N/A,,Clear,280,2011-10-16 17:54:00
1:11 PM,69.8,48.2,46,29.82,10.0,NW,10.4,26.5,N/A,,Clear,310,2011-10-16 18:11:00
1:54 PM,68.0,48.2,49,29.83,10.0,NNW,12.7,21.9,N/A,,Clear,330,2011-10-16 18:54:00
2:54 PM,66.9,43.0,42,29.86,10.0,NNW,16.1,27.6,N/A,,Clear,330,2011-10-16 19:54:00
3:54 PM,64.0,42.1,45,29.90,10.0,NW,15.0,-,N/A,,Clear,320,2011-10-16 20:54:00
4:54 PM,62.1,42.1,48,29.90,10.0,NW,16.1,21.9,N/A,,Clear,320,2011-10-16 21:54:00
5:54 PM,60.1,41.0,49,29.91,10.0,NW,10.4,-,N/A,,Clear,310,2011-10-16 22:54:00
6:54 PM,59.0,35.6,42,29.93,10.0,NW,11.5,-,N/A,,Clear,320,2011-10-16 23:54:00
7:54 PM,57.0,35.1,44,29.94,10.0,NW,10.4,-,N/A,,Clear,320,2011-10-17 00:54:00
8:54 PM,55.9,36.0,47,29.94,10.0,NW,6.9,-,N/A,,Clear,310,2011-10-17 01:54:00
9:54 PM,55.0,36.0,49,29.96,10.0,NW,6.9,-,N/A,,Clear,310,2011-10-17 02:54:00
10:54 PM,54.0,36.0,51,29.96,10.0,NW,10.4,-,N/A,,Clear,310,2011-10-17 03:54:00
11:54 PM,52.0,37.0,57,29.97,10.0,WNW,6.9,-,N/A,,Clear,290,2011-10-17 04:54:00